Date String (YYYY-MM-DD hh:mm:ss) UTC,Instrument flags,absolute air pressure of the measurement (hPa),sample flow rate (lpm),inlet stack bypass flow (lpm),air temperature of the measurement (°C),ambient temperature measured by the external sensor (°C),aerosol sample conditioner tube jacket temperature (°C),OPC LED temperature (°C),internal box temperature (°C),relative humidity of the measurement (%),span deviation,mass concentration of particles derived from Lorenz-Mie calculation of OPC scattering (μg/m³),mass concentration of particles derived from Lorenz-Mie calculation of OPC scattering (μg/m³),mass concentration of particles derived from Lorenz-Mie calculation of OPC scattering (μg/m³)
DateTimeUTC,F1_M11,P_M11,Q1_M11,Q2_M11,T1_M11,T2_M11,T3_M11,T4_M11,T5_M11,U1_M11,ZSPAN_M11,X0_M11,X2_M11,X1_M11
2023-12-19 22:00:00,SystemResetWarning,0825.3,5.00,000.00,025.8,024.9,000.0,034.0,027.1,12.7,0000.0,0001.18,0000.61,0000.41
2023-12-19 22:01:00,SystemResetWarning,0825.4,5.00,000.00,025.8,024.9,000.0,034.0,027.2,12.6,0000.0,0001.17,0000.61,0000.41
2023-12-19 22:02:00,SystemResetWarning,0825.4,4.99,000.00,025.8,025.0,000.0,034.0,027.2,12.8,0000.0,0001.15,0000.60,0000.40
2023-12-19 22:03:00,SystemResetWarning,0825.4,5.01,000.00,025.8,025.0,000.0,034.0,027.2,12.7,0000.0,0001.14,0000.59,0000.40
2023-12-19 22:04:00,SystemResetWarning,0825.4,5.00,000.00,025.8,025.0,000.0,034.1,027.2,12.6,0000.0,0001.14,0000.59,0000.40
2023-12-19 22:05:00,SystemResetWarning,0825.4,5.00,000.00,025.9,025.0,000.0,034.1,027.2,12.4,0000.0,0001.10,0000.59,0000.41
2023-12-19 22:06:00,SystemResetWarning,0825.4,5.01,000.00,025.9,025.0,000.0,034.1,027.3,12.5,0000.0,0001.04,0000.58,0000.41
2023-12-19 22:07:00,SystemResetWarning,0825.4,5.01,000.00,025.9,025.0,000.0,034.1,027.3,12.5,0000.0,0001.02,0000.58,0000.42
2023-12-19 22:08:00,SystemResetWarning,0825.4,4.99,000.00,025.9,025.1,000.0,034.1,027.3,12.5,0000.0,0000.99,0000.57,0000.42
2023-12-19 22:09:00,SystemResetWarning,0825.5,4.99,000.00,025.9,025.1,000.0,034.1,027.3,12.5,0000.0,0000.89,0000.57,0000.42
2023-12-19 22:10:00,SystemResetWarning,0825.5,5.00,000.00,025.9,025.1,000.0,034.1,027.4,12.7,0000.0,0000.91,0000.59,0000.43
2023-12-19 22:11:00,SystemResetWarning,0825.5,4.99,000.00,026.0,024.4,000.0,034.1,027.5,12.8,0000.0,0000.90,0000.59,0000.43
2023-12-19 22:12:00,SystemResetWarning,0825.4,5.00,000.00,025.9,022.8,000.0,034.1,027.3,12.8,0000.0,0000.92,0000.59,0000.42
2023-12-19 22:13:00,SystemResetWarning,0825.4,5.00,000.00,025.8,022.4,000.0,034.1,027.1,12.6,0000.0,0001.06,0000.60,0000.43
2023-12-19 22:14:00,SystemResetWarning,0825.4,5.02,000.00,025.7,022.7,000.0,034.0,026.7,12.8,0000.0,0001.08,0000.62,0000.43
2023-12-19 22:15:00,SystemResetWarning,0825.4,5.00,000.00,025.6,023.0,000.0,034.0,026.6,12.9,0000.0,0001.12,0000.64,0000.43
2023-12-19 22:16:00,SystemResetWarning,0825.5,5.00,000.00,025.6,023.3,000.0,033.9,026.7,13.1,0000.0,0001.14,0000.64,0000.44
2023-12-19 22:17:00,SystemResetWarning,0825.5,5.00,000.00,025.5,023.6,000.0,033.9,026.7,13.1,0000.0,0001.13,0000.64,0000.44
2023-12-19 22:18:00,SystemResetWarning,0825.4,4.99,000.00,025.5,023.8,000.0,033.9,026.7,13.1,0000.0,0001.14,0000.64,0000.44
2023-12-19 22:19:00,SystemResetWarning,0825.5,4.99,000.00,025.5,024.0,000.0,033.9,026.8,13.1,0000.0,0001.20,0000.66,0000.44
2023-12-19 22:20:00,SystemResetWarning,0825.5,5.02,000.00,025.5,024.1,000.0,033.9,026.9,13.3,0000.0,0001.19,0000.65,0000.43
2023-12-19 22:21:00,SystemResetWarning,0825.5,5.00,000.00,025.5,024.3,000.0,033.9,026.9,13.4,0000.0,0001.13,0000.62,0000.42
2023-12-19 22:22:00,SystemResetWarning,0825.5,5.00,000.00,025.6,024.4,000.0,033.9,026.9,13.4,0000.0,0001.18,0000.61,0000.42
2023-12-19 22:23:00,SystemResetWarning,0825.5,5.00,000.00,025.6,024.5,000.0,033.9,027.0,13.5,0000.0,0001.21,0000.61,0000.42
2023-12-19 22:24:00,SystemResetWarning,0825.5,4.99,000.00,025.6,024.6,000.0,033.9,027.0,13.6,0000.0,0001.15,0000.60,0000.43
2023-12-19 22:25:00,SystemResetWarning,0825.5,4.99,000.00,025.6,024.6,000.0,033.9,027.0,13.5,0000.0,0001.25,0000.61,0000.43
2023-12-19 22:26:00,SystemResetWarning,0825.5,5.00,000.00,025.6,024.7,000.0,033.9,027.1,13.2,0000.0,0002.01,0000.62,0000.43
2023-12-19 22:27:00,SystemResetWarning,0825.6,5.00,000.00,025.7,024.8,000.0,033.9,027.1,13.2,0000.0,0002.49,0000.59,0000.42
2023-12-19 22:28:00,SystemResetWarning,0825.6,5.00,000.00,025.7,024.8,000.0,033.9,027.1,13.3,0000.0,0002.54,0000.61,0000.42
2023-12-19 22:29:00,SystemResetWarning,0825.5,5.00,000.00,025.7,024.9,000.0,033.9,027.2,13.3,0000.0,0002.55,0000.62,0000.42
2023-12-19 22:30:00,SystemResetWarning,0825.6,5.00,000.00,025.7,024.9,000.0,033.9,027.2,13.3,0000.0,0002.47,0000.59,0000.42
2023-12-19 22:31:00,SystemResetWarning,0825.6,4.99,000.00,025.8,024.9,000.0,033.9,027.2,13.2,0000.0,0002.44,0000.57,0000.42
2023-12-19 22:32:00,SystemResetWarning,0825.6,4.99,000.00,025.8,025.0,000.0,034.0,027.2,13.1,0000.0,0002.44,0000.58,0000.43
2023-12-19 22:33:00,SystemResetWarning,0825.6,5.00,000.00,025.8,025.0,000.0,034.0,027.3,13.1,0000.0,0002.36,0000.57,0000.43
2023-12-19 22:34:00,SystemResetWarning,0825.6,4.99,000.00,025.8,025.0,000.0,034.0,027.3,13.1,0000.0,0002.35,0000.58,0000.44
2023-12-19 22:35:00,SystemResetWarning,0825.5,5.00,000.00,025.8,025.0,000.0,034.0,027.3,13.0,0000.0,0002.29,0000.59,0000.44
2023-12-19 22:36:00,SystemResetWarning,0825.6,4.99,000.00,025.9,024.4,000.0,034.0,027.4,13.0,0000.0,0002.16,0000.58,0000.45
2023-12-19 22:37:00,SystemResetWarning,0825.5,5.01,000.00,025.8,022.6,000.0,034.0,027.2,13.0,0000.0,0001.35,0000.57,0000.45
2023-12-19 22:38:00,SystemResetWarning,0825.5,5.01,000.00,025.7,022.2,000.0,034.0,027.0,13.0,0000.0,0000.90,0000.59,0000.45
2023-12-19 22:39:00,SystemResetWarning,0825.5,5.01,000.00,025.6,022.4,000.0,033.9,026.5,13.1,0000.0,0001.02,0000.60,0000.45
2023-12-19 22:40:00,SystemResetWarning,0825.5,4.99,000.00,025.5,022.8,000.0,033.9,026.5,13.2,0000.0,0001.03,0000.60,0000.46
2023-12-19 22:41:00,SystemResetWarning,0825.5,5.00,000.00,025.4,023.1,000.0,033.8,026.6,13.2,0000.0,0001.05,0000.60,0000.46
2023-12-19 22:42:00,SystemResetWarning,0825.5,4.99,000.00,025.4,023.4,000.0,033.8,026.6,13.2,0000.0,0001.15,0000.62,0000.47
2023-12-19 22:43:00,SystemResetWarning,0825.6,5.00,000.00,025.4,023.6,000.0,033.8,026.6,13.2,0000.0,0001.24,0000.66,0000.46
2023-12-19 22:44:00,SystemResetWarning,0825.6,4.99,000.00,025.4,023.8,000.0,033.8,026.6,13.2,0000.0,0001.32,0000.67,0000.47
2023-12-19 22:45:00,SystemResetWarning,0825.6,5.00,000.00,025.4,024.0,000.0,033.8,026.7,13.2,0000.0,0001.32,0000.67,0000.47
2023-12-19 22:46:00,SystemResetWarning,0825.6,5.00,000.00,025.4,024.1,000.0,033.8,026.7,13.2,0000.0,0001.29,0000.67,0000.47
2023-12-19 22:47:00,SystemResetWarning,0825.6,5.00,000.00,025.4,024.2,000.0,033.7,026.8,13.3,0000.0,0001.28,0000.66,0000.47
2023-12-19 22:48:00,SystemResetWarning,0825.6,5.01,000.00,025.4,024.3,000.0,033.7,026.8,13.3,0000.0,0001.30,0000.67,0000.47
2023-12-19 22:49:00,SystemResetWarning,0825.6,5.01,000.00,025.5,024.4,000.0,033.7,026.9,13.3,0000.0,0001.27,0000.67,0000.47
2023-12-19 22:50:00,SystemResetWarning,0825.6,4.99,000.00,025.5,024.5,000.0,033.7,026.9,13.3,0000.0,0001.23,0000.68,0000.48
2023-12-19 22:51:00,SystemResetWarning,0825.5,4.99,000.00,025.5,024.5,000.0,033.8,026.9,13.3,0000.0,0001.26,0000.71,0000.48
2023-12-19 22:52:00,SystemResetWarning,0825.6,5.00,000.00,025.5,024.6,000.0,033.8,026.9,13.2,0000.0,0001.31,0000.73,0000.48
2023-12-19 22:53:00,SystemResetWarning,0825.6,5.02,000.00,025.5,024.6,000.0,033.8,026.9,13.3,0000.0,0001.31,0000.75,0000.48
2023-12-19 22:54:00,SystemResetWarning,0825.6,5.00,000.00,025.6,024.7,000.0,033.8,027.0,13.4,0000.0,0001.26,0000.73,0000.48
2023-12-19 22:55:00,SystemResetWarning,0825.6,4.98,000.00,025.6,024.7,000.0,033.8,027.0,13.4,0000.0,0001.14,0000.72,0000.47
2023-12-19 22:56:00,SystemResetWarning,0825.6,5.01,000.00,025.6,024.8,000.0,033.8,027.0,13.3,0000.0,0001.18,0000.72,0000.47
2023-12-19 22:57:00,SystemResetWarning,0825.6,5.00,000.00,025.6,024.8,000.0,033.8,027.0,13.2,0000.0,0001.32,0000.72,0000.46
2023-12-19 22:58:00,SystemResetWarning,0825.6,5.00,000.00,025.6,024.8,000.0,033.8,027.0,13.2,0000.0,0001.37,0000.73,0000.46
2023-12-19 22:59:00,SystemResetWarning,0825.6,4.99,000.00,025.6,024.8,000.0,033.8,027.1,13.3,0000.0,0001.45,0000.75,0000.46
